Погода в Артемовске

Россия / Красноярский край     54°20′50″N   93°26′08″E
темп.,
°C
ветер,
м/с
пор.,
м/с
влажн.,
%
обл.,
%
осадки,
мм/ч
давл.,
гПа
погр.,
м
16 июня, ср
ср1601:00+9в0079100 0.1 101511
04:00+8ююв1198100 1.7 101529
07:00+8вюв1199100 3.0 101674
10:00+9вюв1299100 0.8 1017137
13:00+9юв1296100 1.1 1018200
16:00+12юв128558 0.0 1017421
19:00+14ю127496 0.1 1016739
22:00+9вюв11946 0.0 101710
17 июня, чт
чт1701:00+8всв119647 0.0 101710
04:00+8вюв119595 0.0 101617
07:00+12юв1285100 0.1 1015168
10:00+17юв2263100 0.1 1014661
13:00+21ю235213 0.1 10111370
16:00+23юз244820 0.2 10091906
19:00+21зюз12695 0.3 1008228
22:00+13сз22954 1.6 100916
18 июня, пт
пт1801:00+12в219532 1.7 100918
04:00+10вюв119785 0.1 100811
07:00+14ююв119658 0.7 1008154
10:00+16юз239067 0.7 1007510
13:00+18зюз2479100 2.1 10061041
16:00+17зюз258786 2.9 1006759
19:00+15ю12915 6.7 1006116
22:00+11в11943 0.2 100611
19 июня, сб
сб1901:00+10в1196100 0.2 100712
04:00+11в1196100 0.0 100619
07:00+13вюв129343 0.0 1006173
10:00+19ююв22643 0.1 1004718
13:00+23ююз234929 0.2 10031714
16:00+22ссз016789 0.3 1001510
19:00+20вюв0081100 0.8 100115
22:00+15всв1192100 0.0 100211
20 июня, вс
вс2001:00+13св229579 0.0 100218
04:00+11всв11953 0.0 100211
07:00+16в11810 0.0 1002149
10:00+23ююв12555 0.0 1000748
13:00+27ююв11413 0.0 9991406
16:00+27вюв12381 0.0 9971608
19:00+25зюз11625 0.0 99825
22:00+15зюз3697100 1.6 1003248